Year,Month,Day,Hour,Minute,Value (Times are PST for windgust in km/hr)
2015,12,04,00,00,1.60
2015,12,04,00,07,1.60
2015,12,04,00,08,1.60
2015,12,04,00,12,1.60
2015,12,04,00,37,1.60
2015,12,04,00,38,3.20
2015,12,04,00,39,3.20
2015,12,04,00,40,3.20
2015,12,04,00,41,1.60
2015,12,04,00,43,4.80
2015,12,04,00,44,4.80
2015,12,04,00,45,4.80
2015,12,04,00,46,3.20
2015,12,04,00,47,3.20
2015,12,04,00,48,1.60
2015,12,04,00,49,1.60
2015,12,04,00,50,3.20
2015,12,04,00,51,1.60
2015,12,04,00,52,1.60
2015,12,04,00,53,1.60
2015,12,04,00,54,1.60
2015,12,04,01,00,1.60
2015,12,04,01,11,3.20
2015,12,04,01,12,3.20
2015,12,04,01,13,3.20
2015,12,04,01,14,3.20
2015,12,04,01,15,1.60
2015,12,04,01,16,3.20
2015,12,04,01,17,1.60
2015,12,04,01,18,1.60
2015,12,04,01,19,3.20
2015,12,04,01,20,6.40
2015,12,04,01,21,6.40
2015,12,04,01,22,4.80
2015,12,04,01,23,4.80
2015,12,04,01,24,4.80
2015,12,04,01,25,4.80
2015,12,04,01,26,4.80
2015,12,04,01,27,4.80
2015,12,04,01,28,3.20
2015,12,04,01,29,3.20
2015,12,04,01,30,1.60
2015,12,04,01,31,1.60
2015,12,04,01,32,3.20
2015,12,04,01,33,4.80
2015,12,04,01,34,3.20
2015,12,04,01,35,4.80
2015,12,04,01,36,1.60
2015,12,04,01,38,1.60
2015,12,04,01,39,3.20
2015,12,04,01,40,3.20
2015,12,04,01,41,1.60
2015,12,04,01,42,1.60
2015,12,04,01,43,3.20
2015,12,04,01,44,3.20
2015,12,04,01,45,4.80
2015,12,04,01,46,4.80
2015,12,04,01,47,4.80
2015,12,04,01,48,3.20
2015,12,04,01,49,6.40
2015,12,04,01,50,6.40
2015,12,04,01,51,4.80
2015,12,04,01,52,6.40
2015,12,04,01,53,4.80
2015,12,04,01,54,3.20
2015,12,04,01,55,3.20
2015,12,04,01,56,3.20
2015,12,04,01,57,4.80
2015,12,04,01,58,3.20
2015,12,04,01,59,3.20
2015,12,04,02,03,1.60
2015,12,04,02,04,4.80
2015,12,04,02,05,3.20
2015,12,04,02,06,4.80
2015,12,04,02,07,3.20
2015,12,04,02,08,3.20
2015,12,04,02,09,4.80
2015,12,04,02,10,3.20
2015,12,04,02,11,3.20
2015,12,04,02,12,3.20
2015,12,04,02,13,3.20
2015,12,04,02,14,4.80
2015,12,04,02,15,6.40
2015,12,04,02,16,4.80
2015,12,04,02,17,4.80
2015,12,04,02,18,4.80
2015,12,04,02,19,4.80
2015,12,04,02,20,6.40
2015,12,04,02,21,6.40
2015,12,04,02,22,6.40
2015,12,04,02,23,6.40
2015,12,04,02,24,4.80
2015,12,04,02,25,3.20
2015,12,04,02,26,1.60
2015,12,04,02,27,3.20
2015,12,04,02,28,4.80
2015,12,04,02,29,4.80
2015,12,04,02,30,4.80
2015,12,04,02,31,4.80
2015,12,04,02,32,4.80
2015,12,04,02,33,4.80
2015,12,04,02,34,3.20
2015,12,04,02,35,3.20
2015,12,04,02,36,3.20
2015,12,04,02,37,3.20
2015,12,04,02,38,3.20
2015,12,04,02,39,1.60
2015,12,04,02,40,1.60
2015,12,04,02,42,1.60
2015,12,04,02,43,1.60
2015,12,04,02,44,3.20
2015,12,04,02,45,4.80
2015,12,04,02,46,6.40
2015,12,04,02,47,6.40
2015,12,04,02,48,4.80
2015,12,04,02,49,1.60
2015,12,04,02,53,1.60
2015,12,04,02,57,1.60
2015,12,04,03,01,4.80
2015,12,04,03,02,4.80
2015,12,04,03,03,4.80
2015,12,04,03,04,1.60
2015,12,04,03,06,1.60
2015,12,04,03,07,4.80
2015,12,04,03,08,1.60
2015,12,04,03,12,1.60
2015,12,04,03,13,1.60
2015,12,04,03,14,4.80
2015,12,04,03,15,4.80
2015,12,04,03,16,4.80
2015,12,04,03,17,4.80
2015,12,04,03,18,4.80
2015,12,04,03,19,3.20
2015,12,04,03,20,3.20
2015,12,04,03,21,1.60
2015,12,04,03,22,1.60
2015,12,04,03,30,1.60
2015,12,04,03,31,3.20
2015,12,04,03,32,3.20
2015,12,04,03,34,1.60
2015,12,04,03,35,1.60
2015,12,04,03,36,1.60
2015,12,04,03,37,1.60
2015,12,04,03,38,3.20
2015,12,04,03,39,1.60
2015,12,04,03,49,1.60
2015,12,04,03,50,1.60
2015,12,04,03,51,1.60
2015,12,04,03,52,1.60
2015,12,04,03,53,1.60
2015,12,04,03,54,3.20
2015,12,04,03,55,3.20
2015,12,04,03,56,4.80
2015,12,04,03,57,3.20
2015,12,04,03,58,3.20
2015,12,04,03,59,1.60
2015,12,04,04,05,6.40
2015,12,04,04,06,3.20
2015,12,04,04,07,3.20
2015,12,04,04,08,1.60
2015,12,04,04,09,1.60
2015,12,04,04,10,1.60
2015,12,04,04,11,1.60
2015,12,04,04,12,1.60
2015,12,04,04,13,1.60
2015,12,04,04,14,1.60
2015,12,04,04,15,1.60
2015,12,04,04,16,1.60
2015,12,04,04,17,3.20
2015,12,04,04,18,3.20
2015,12,04,04,19,1.60
2015,12,04,04,20,1.60
2015,12,04,04,21,1.60
2015,12,04,04,22,1.60
2015,12,04,04,23,1.60
2015,12,04,04,29,1.60
2015,12,04,04,30,3.20
2015,12,04,04,31,3.20
2015,12,04,04,38,4.80
2015,12,04,04,39,3.20
2015,12,04,04,40,3.20
2015,12,04,04,41,1.60
2015,12,04,04,44,1.60
2015,12,04,04,45,1.60
2015,12,04,04,46,1.60
2015,12,04,04,50,1.60
2015,12,04,04,51,1.60
2015,12,04,04,53,1.60
2015,12,04,04,54,1.60
2015,12,04,05,03,1.60
2015,12,04,05,04,3.20
2015,12,04,05,05,1.60
2015,12,04,05,06,1.60
2015,12,04,05,07,1.60
2015,12,04,05,21,3.20
2015,12,04,05,23,3.20
2015,12,04,05,24,3.20
2015,12,04,05,25,1.60
2015,12,04,05,27,1.60
2015,12,04,05,28,1.60
2015,12,04,05,29,1.60
2015,12,04,05,30,1.60
2015,12,04,05,31,1.60
2015,12,04,05,32,1.60
2015,12,04,05,38,1.60
2015,12,04,05,39,1.60
2015,12,04,05,40,3.20
2015,12,04,05,41,3.20
2015,12,04,05,42,4.80
2015,12,04,05,43,3.20
2015,12,04,05,44,3.20
2015,12,04,05,45,3.20
2015,12,04,05,46,6.40
2015,12,04,05,47,6.40
2015,12,04,05,48,8.10
2015,12,04,05,49,9.60
2015,12,04,05,50,6.40
2015,12,04,05,51,4.80
2015,12,04,05,52,3.20
2015,12,04,05,53,3.20
2015,12,04,05,54,3.20
2015,12,04,05,55,3.20
2015,12,04,05,56,3.20
2015,12,04,05,57,3.20
2015,12,04,05,58,6.40
2015,12,04,05,59,4.80
2015,12,04,06,00,3.20
2015,12,04,06,01,1.60
2015,12,04,06,02,3.20
2015,12,04,06,07,1.60
2015,12,04,06,08,3.20
2015,12,04,06,09,3.20
2015,12,04,06,10,4.80
2015,12,04,06,11,3.20
2015,12,04,06,12,4.80
2015,12,04,06,13,4.80
2015,12,04,06,14,4.80
2015,12,04,06,15,4.80
2015,12,04,06,16,3.20
2015,12,04,06,17,3.20
2015,12,04,06,18,1.60
2015,12,04,06,19,3.20
2015,12,04,06,21,1.60
2015,12,04,06,22,1.60
2015,12,04,06,27,1.60
2015,12,04,06,28,3.20
2015,12,04,06,29,1.60
2015,12,04,06,30,1.60
2015,12,04,06,31,1.60
2015,12,04,06,35,1.60
2015,12,04,06,36,1.60
2015,12,04,06,38,1.60
2015,12,04,06,39,3.20
2015,12,04,06,40,3.20
2015,12,04,06,41,4.80
2015,12,04,06,42,4.80
2015,12,04,06,43,4.80
2015,12,04,06,44,4.80
2015,12,04,06,45,3.20
2015,12,04,06,46,1.60
2015,12,04,06,47,1.60
2015,12,04,06,48,3.20
2015,12,04,06,49,3.20
2015,12,04,06,50,4.80
2015,12,04,06,51,1.60
2015,12,04,06,52,3.20
2015,12,04,06,53,3.20
2015,12,04,06,54,3.20
2015,12,04,06,55,3.20
2015,12,04,06,57,3.20
2015,12,04,06,58,1.60
2015,12,04,06,59,1.60
2015,12,04,07,00,1.60
2015,12,04,07,01,1.60
2015,12,04,07,02,1.60
2015,12,04,07,03,1.60
2015,12,04,07,04,1.60
2015,12,04,07,05,1.60
2015,12,04,07,06,1.60
2015,12,04,07,07,1.60
2015,12,04,07,08,3.20
2015,12,04,07,09,3.20
2015,12,04,07,10,3.20
2015,12,04,07,11,3.20
2015,12,04,07,12,3.20
2015,12,04,07,13,3.20
2015,12,04,07,14,1.60
2015,12,04,07,16,1.60
2015,12,04,07,17,4.80
2015,12,04,07,18,6.40
2015,12,04,07,19,4.80
2015,12,04,07,20,4.80
2015,12,04,07,21,3.20
2015,12,04,07,22,3.20
2015,12,04,07,23,1.60
2015,12,04,07,24,1.60
2015,12,04,07,25,1.60
2015,12,04,07,26,1.60
2015,12,04,07,27,1.60
2015,12,04,07,28,1.60
2015,12,04,07,29,1.60
2015,12,04,07,30,1.60
2015,12,04,07,33,1.60
2015,12,04,07,36,3.20
2015,12,04,07,37,3.20
2015,12,04,07,38,4.80
2015,12,04,07,39,4.80
2015,12,04,07,40,6.40
2015,12,04,07,41,6.40
2015,12,04,07,42,6.40
2015,12,04,07,43,3.20
2015,12,04,07,44,3.20
2015,12,04,07,51,3.20
2015,12,04,07,52,4.80
2015,12,04,07,53,4.80
2015,12,04,07,54,3.20
2015,12,04,07,55,3.20
2015,12,04,07,56,4.80
2015,12,04,07,57,4.80
2015,12,04,07,58,4.80
2015,12,04,07,59,4.80
2015,12,04,08,00,3.20
2015,12,04,08,01,1.60
2015,12,04,08,02,1.60
2015,12,04,08,03,3.20
2015,12,04,08,04,1.60
2015,12,04,08,05,3.20
2015,12,04,08,07,1.60
2015,12,04,08,08,3.20
2015,12,04,08,09,3.20
2015,12,04,08,10,1.60
2015,12,04,08,12,1.60
2015,12,04,08,13,1.60
2015,12,04,08,14,1.60
2015,12,04,08,15,1.60
2015,12,04,08,16,1.60
2015,12,04,08,18,3.20
2015,12,04,08,19,1.60
2015,12,04,08,31,1.60
2015,12,04,08,32,3.20
2015,12,04,08,33,3.20
2015,12,04,08,34,3.20
2015,12,04,08,35,1.60
2015,12,04,08,36,3.20
2015,12,04,08,37,3.20
2015,12,04,08,38,3.20
2015,12,04,08,39,1.60
2015,12,04,08,40,1.60
2015,12,04,08,51,1.60
2015,12,04,08,52,1.60
2015,12,04,08,53,3.20
2015,12,04,08,54,3.20
2015,12,04,08,55,4.80
2015,12,04,08,56,4.80
2015,12,04,08,57,4.80
2015,12,04,08,58,4.80
2015,12,04,08,59,4.80
2015,12,04,09,00,3.20
2015,12,04,09,01,1.60
2015,12,04,09,03,1.60
2015,12,04,09,04,1.60
2015,12,04,09,05,1.60
2015,12,04,09,13,3.20
2015,12,04,09,14,3.20
2015,12,04,09,15,3.20
2015,12,04,09,16,4.80
2015,12,04,09,17,6.40
2015,12,04,09,18,4.80
2015,12,04,09,19,4.80
2015,12,04,09,20,3.20
2015,12,04,09,21,4.80
2015,12,04,09,22,3.20
2015,12,04,09,23,3.20
2015,12,04,09,24,4.80
2015,12,04,09,25,4.80
2015,12,04,09,26,1.60
2015,12,04,09,27,1.60
2015,12,04,09,28,3.20
2015,12,04,09,29,1.60
2015,12,04,09,30,1.60
2015,12,04,09,31,1.60
2015,12,04,09,34,1.60
2015,12,04,09,37,1.60
2015,12,04,09,38,1.60
2015,12,04,09,40,1.60
2015,12,04,09,41,3.20
2015,12,04,09,42,3.20
2015,12,04,09,43,4.80
2015,12,04,09,44,4.80
2015,12,04,09,45,4.80
2015,12,04,09,46,3.20
2015,12,04,09,47,1.60
2015,12,04,09,50,1.60
2015,12,04,09,51,3.20
2015,12,04,09,52,1.60
2015,12,04,09,53,1.60
2015,12,04,09,54,3.20
2015,12,04,09,55,1.60
2015,12,04,09,56,1.60
2015,12,04,09,59,3.20
2015,12,04,10,00,3.20
2015,12,04,10,01,3.20
2015,12,04,10,02,3.20
2015,12,04,10,03,3.20
2015,12,04,10,04,3.20
2015,12,04,10,05,3.20
2015,12,04,10,06,1.60
2015,12,04,10,07,1.60
2015,12,04,10,08,3.20
2015,12,04,10,10,1.60
2015,12,04,10,11,1.60
2015,12,04,10,13,1.60
2015,12,04,10,14,1.60
2015,12,04,10,15,1.60
2015,12,04,10,16,1.60
2015,12,04,10,17,3.20
2015,12,04,10,18,3.20
2015,12,04,10,19,1.60
2015,12,04,10,20,1.60
2015,12,04,10,21,1.60
2015,12,04,10,25,3.20
2015,12,04,10,26,1.60
2015,12,04,10,27,3.20
2015,12,04,10,28,1.60
2015,12,04,10,29,4.80
2015,12,04,10,30,8.10
2015,12,04,10,31,6.40
2015,12,04,10,32,4.80
2015,12,04,10,33,3.20
2015,12,04,10,34,3.20
2015,12,04,10,36,3.20
2015,12,04,10,37,3.20
2015,12,04,10,38,4.80
2015,12,04,10,39,4.80
2015,12,04,10,40,1.60
2015,12,04,10,41,1.60
2015,12,04,10,42,1.60
2015,12,04,10,43,1.60
2015,12,04,10,44,1.60
2015,12,04,10,48,1.60
2015,12,04,10,49,1.60
2015,12,04,10,58,1.60
2015,12,04,10,59,3.20
2015,12,04,11,00,3.20
2015,12,04,11,01,1.60
2015,12,04,11,03,1.60
2015,12,04,11,04,1.60
2015,12,04,11,05,1.60
2015,12,04,11,08,1.60
2015,12,04,11,09,3.20
2015,12,04,11,10,4.80
2015,12,04,11,11,3.20
2015,12,04,11,12,3.20
2015,12,04,11,13,3.20
2015,12,04,11,14,1.60
2015,12,04,11,15,1.60
2015,12,04,11,16,3.20
2015,12,04,11,17,3.20
2015,12,04,11,18,3.20
2015,12,04,11,19,3.20
2015,12,04,11,20,3.20
2015,12,04,11,21,1.60
2015,12,04,11,22,1.60
2015,12,04,11,23,3.20
2015,12,04,11,24,3.20
2015,12,04,11,25,1.60
2015,12,04,11,26,9.60
2015,12,04,11,27,9.60
2015,12,04,11,28,6.40
2015,12,04,11,29,4.80
2015,12,04,11,30,6.40
2015,12,04,11,31,4.80
2015,12,04,11,32,4.80
2015,12,04,11,33,4.80
2015,12,04,11,34,4.80
2015,12,04,11,35,4.80
2015,12,04,11,36,4.80
2015,12,04,11,37,4.80
2015,12,04,11,38,3.20
2015,12,04,11,40,1.60
2015,12,04,11,41,1.60
2015,12,04,11,42,3.20
2015,12,04,11,43,1.60
2015,12,04,11,44,3.20
2015,12,04,11,45,4.80
2015,12,04,11,46,4.80
2015,12,04,11,47,3.20
2015,12,04,11,48,3.20
2015,12,04,11,49,4.80
2015,12,04,11,50,4.80
2015,12,04,11,51,4.80
2015,12,04,11,52,4.80
2015,12,04,11,53,4.80
2015,12,04,11,54,6.40
2015,12,04,11,55,4.80
2015,12,04,11,56,4.80
2015,12,04,11,57,4.80
2015,12,04,11,58,3.20
2015,12,04,11,59,1.60
2015,12,04,12,00,3.20
2015,12,04,12,01,3.20
2015,12,04,12,02,3.20
2015,12,04,12,03,1.60
2015,12,04,12,04,3.20
2015,12,04,12,05,3.20
2015,12,04,12,06,3.20
2015,12,04,12,07,3.20
2015,12,04,12,08,1.60
2015,12,04,12,09,1.60
2015,12,04,12,10,1.60
2015,12,04,12,15,1.60
2015,12,04,12,17,1.60
2015,12,04,12,18,1.60
2015,12,04,12,19,1.60
2015,12,04,12,20,1.60
2015,12,04,12,26,3.20
2015,12,04,12,27,1.60
2015,12,04,12,28,1.60
2015,12,04,12,29,3.20
2015,12,04,12,30,3.20
2015,12,04,12,31,1.60
2015,12,04,12,32,3.20
2015,12,04,12,33,4.80
2015,12,04,12,34,4.80
2015,12,04,12,35,3.20
2015,12,04,12,36,4.80
2015,12,04,12,37,3.20
2015,12,04,12,38,1.60
2015,12,04,12,39,1.60
2015,12,04,12,40,3.20
2015,12,04,12,41,3.20
2015,12,04,12,42,1.60
2015,12,04,12,43,1.60
2015,12,04,12,44,4.80
2015,12,04,12,45,11.30
2015,12,04,12,46,14.50
2015,12,04,12,47,12.90
2015,12,04,12,48,9.60
2015,12,04,12,49,9.60
2015,12,04,12,50,12.90
2015,12,04,12,51,9.60
2015,12,04,12,52,6.40
2015,12,04,12,53,6.40
2015,12,04,12,54,4.80
2015,12,04,12,55,9.60
2015,12,04,12,56,12.90
2015,12,04,12,57,9.60
2015,12,04,12,58,9.60
2015,12,04,12,59,6.40
2015,12,04,13,00,6.40
2015,12,04,13,01,4.80
2015,12,04,13,02,4.80
2015,12,04,13,03,3.20
2015,12,04,13,04,4.80
2015,12,04,13,05,6.40
2015,12,04,13,06,14.50
2015,12,04,13,07,11.30
2015,12,04,13,08,9.60
2015,12,04,13,09,8.10
2015,12,04,13,10,4.80
2015,12,04,13,11,4.80
2015,12,04,13,12,4.80
2015,12,04,13,13,1.60
2015,12,04,13,14,1.60
2015,12,04,13,17,1.60
2015,12,04,13,18,6.40
2015,12,04,13,19,6.40
2015,12,04,13,20,9.60
2015,12,04,13,21,8.10
2015,12,04,13,22,14.50
2015,12,04,13,23,14.50
2015,12,04,13,24,17.70
2015,12,04,13,25,12.90
2015,12,04,13,26,12.90
2015,12,04,13,27,12.90
2015,12,04,13,28,11.30
2015,12,04,13,29,11.30
2015,12,04,13,30,11.30
2015,12,04,13,31,6.40
2015,12,04,13,32,6.40
2015,12,04,13,33,4.80
2015,12,04,13,34,3.20
2015,12,04,13,35,3.20
2015,12,04,13,37,6.40
2015,12,04,13,38,11.30
2015,12,04,13,39,12.90
2015,12,04,13,40,12.90
2015,12,04,13,41,12.90
2015,12,04,13,42,12.90
2015,12,04,13,43,14.50
2015,12,04,13,44,14.50
2015,12,04,13,45,16.10
2015,12,04,13,46,12.90
2015,12,04,13,47,11.30
2015,12,04,13,48,8.10
2015,12,04,13,49,8.10
2015,12,04,13,50,11.30
2015,12,04,13,51,12.90
2015,12,04,13,52,11.30
2015,12,04,13,53,11.30
2015,12,04,13,54,9.60
2015,12,04,13,55,12.90
2015,12,04,13,56,11.30
2015,12,04,13,57,12.90
2015,12,04,13,58,16.10
2015,12,04,13,59,12.90
2015,12,04,14,00,14.50
2015,12,04,14,01,11.30
2015,12,04,14,02,6.40
2015,12,04,14,03,11.30
2015,12,04,14,04,12.90
2015,12,04,14,05,6.40
2015,12,04,14,06,11.30
2015,12,04,14,07,12.90
2015,12,04,14,08,12.90
2015,12,04,14,09,17.70
2015,12,04,14,10,20.90
2015,12,04,14,11,16.10
2015,12,04,14,12,16.10
2015,12,04,14,13,12.90
2015,12,04,14,14,11.30
2015,12,04,14,15,6.40
2015,12,04,14,16,9.60
2015,12,04,14,17,9.60
2015,12,04,14,18,4.80
2015,12,04,14,19,4.80
2015,12,04,14,20,6.40
2015,12,04,14,21,9.60
2015,12,04,14,22,11.30
2015,12,04,14,23,9.60
2015,12,04,14,24,12.90
2015,12,04,14,25,12.90
2015,12,04,14,26,11.30
2015,12,04,14,27,12.90
2015,12,04,14,28,12.90
2015,12,04,14,29,6.40
2015,12,04,14,30,6.40
2015,12,04,14,31,9.60
2015,12,04,14,32,12.90
2015,12,04,14,33,12.90
2015,12,04,14,34,11.30
2015,12,04,14,35,9.60
2015,12,04,14,36,6.40
2015,12,04,14,37,14.50
2015,12,04,14,38,11.30
2015,12,04,14,39,11.30
2015,12,04,14,40,12.90
2015,12,04,14,41,16.10
2015,12,04,14,42,14.50
2015,12,04,14,43,11.30
2015,12,04,14,44,11.30
2015,12,04,14,45,11.30
2015,12,04,14,46,16.10
2015,12,04,14,47,17.70
2015,12,04,14,48,14.50
2015,12,04,14,49,17.70
2015,12,04,14,50,14.50
2015,12,04,14,51,14.50
2015,12,04,14,52,19.30
2015,12,04,14,53,17.70
2015,12,04,14,54,14.50
2015,12,04,14,55,16.10
2015,12,04,14,56,14.50
2015,12,04,14,57,9.60
2015,12,04,14,58,12.90
2015,12,04,14,59,12.90
2015,12,04,15,00,9.60
2015,12,04,15,01,11.30
2015,12,04,15,02,12.90
2015,12,04,15,03,11.30
2015,12,04,15,04,14.50
2015,12,04,15,05,12.90
2015,12,04,15,06,12.90
2015,12,04,15,07,14.50
2015,12,04,15,08,17.70
2015,12,04,15,09,14.50
2015,12,04,15,10,12.90
2015,12,04,15,11,11.30
2015,12,04,15,12,14.50
2015,12,04,15,13,14.50
2015,12,04,15,14,12.90
2015,12,04,15,15,14.50
2015,12,04,15,16,12.90
2015,12,04,15,17,12.90
2015,12,04,15,18,8.10
2015,12,04,15,19,16.10
2015,12,04,15,20,14.50
2015,12,04,15,21,16.10
2015,12,04,15,22,8.10
2015,12,04,15,23,16.10
2015,12,04,15,24,19.30
2015,12,04,15,25,22.50
2015,12,04,15,26,16.10
2015,12,04,15,27,12.90
2015,12,04,15,28,9.60
2015,12,04,15,29,14.50
2015,12,04,15,30,17.70
2015,12,04,15,31,17.70
2015,12,04,15,32,16.10
2015,12,04,15,33,16.10
2015,12,04,15,34,14.50
2015,12,04,15,35,19.30
2015,12,04,15,36,17.70
2015,12,04,15,37,14.50
2015,12,04,15,38,17.70
2015,12,04,15,39,17.70
2015,12,04,15,40,14.50
2015,12,04,15,41,16.10
2015,12,04,15,42,14.50
2015,12,04,15,43,12.90
2015,12,04,15,44,12.90
2015,12,04,15,45,11.30
2015,12,04,15,46,17.70
2015,12,04,15,47,12.90
2015,12,04,15,48,16.10
2015,12,04,15,49,14.50
2015,12,04,15,50,14.50
2015,12,04,15,51,14.50
2015,12,04,15,52,14.50
2015,12,04,15,53,16.10
2015,12,04,15,54,9.60
2015,12,04,15,55,17.70
2015,12,04,15,56,14.50
2015,12,04,15,57,12.90
2015,12,04,15,58,12.90
2015,12,04,15,59,12.90
2015,12,04,16,00,11.30
2015,12,04,16,01,9.60
2015,12,04,16,02,9.60
2015,12,04,16,03,11.30
2015,12,04,16,04,8.10
2015,12,04,16,05,11.30
2015,12,04,16,06,8.10
2015,12,04,16,07,11.30
2015,12,04,16,08,11.30
2015,12,04,16,09,8.10
2015,12,04,16,10,6.40
2015,12,04,16,11,8.10
2015,12,04,16,12,9.60
2015,12,04,16,13,11.30
2015,12,04,16,14,6.40
2015,12,04,16,15,8.10
2015,12,04,16,16,6.40
2015,12,04,16,17,8.10
2015,12,04,16,18,11.30
2015,12,04,16,19,12.90
2015,12,04,16,20,8.10
2015,12,04,16,21,9.60
2015,12,04,16,22,8.10
2015,12,04,16,23,6.40
2015,12,04,16,24,4.80
2015,12,04,16,25,6.40
2015,12,04,16,26,6.40
2015,12,04,16,27,6.40
2015,12,04,16,28,9.60
2015,12,04,16,29,12.90
2015,12,04,16,30,12.90
2015,12,04,16,31,9.60
2015,12,04,16,32,11.30
2015,12,04,16,33,12.90
2015,12,04,16,34,6.40
2015,12,04,16,35,9.60
2015,12,04,16,36,8.10
2015,12,04,16,37,6.40
2015,12,04,16,38,6.40
2015,12,04,16,39,8.10
2015,12,04,16,40,11.30
2015,12,04,16,41,6.40
2015,12,04,16,42,8.10
2015,12,04,16,43,4.80
2015,12,04,16,44,3.20
2015,12,04,16,45,12.90
2015,12,04,16,46,11.30
2015,12,04,16,47,11.30
2015,12,04,16,48,12.90
2015,12,04,16,49,8.10
2015,12,04,16,50,16.10
2015,12,04,16,51,8.10
2015,12,04,16,52,6.40
2015,12,04,16,53,8.10
2015,12,04,16,54,11.30
2015,12,04,16,55,11.30
2015,12,04,16,56,9.60
2015,12,04,16,57,8.10
2015,12,04,16,58,11.30
2015,12,04,16,59,8.10
2015,12,04,17,00,8.10
2015,12,04,17,01,11.30
2015,12,04,17,02,9.60
2015,12,04,17,03,11.30
2015,12,04,17,04,12.90
2015,12,04,17,05,8.10
2015,12,04,17,06,8.10
2015,12,04,17,07,11.30
2015,12,04,17,08,11.30
2015,12,04,17,09,9.60
2015,12,04,17,10,9.60
2015,12,04,17,11,11.30
2015,12,04,17,12,8.10
2015,12,04,17,13,14.50
2015,12,04,17,14,11.30
2015,12,04,17,15,11.30
2015,12,04,17,16,12.90
2015,12,04,17,17,14.50
2015,12,04,17,18,14.50
2015,12,04,17,19,11.30
2015,12,04,17,20,11.30
2015,12,04,17,21,11.30
2015,12,04,17,22,12.90
2015,12,04,17,23,11.30
2015,12,04,17,24,14.50
2015,12,04,17,25,12.90
2015,12,04,17,26,8.10
2015,12,04,17,27,11.30
2015,12,04,17,28,6.40
2015,12,04,17,29,6.40
2015,12,04,17,30,9.60
2015,12,04,17,31,11.30
2015,12,04,17,32,11.30
2015,12,04,17,33,6.40
2015,12,04,17,34,6.40
2015,12,04,17,35,8.10
2015,12,04,17,36,14.50
2015,12,04,17,37,12.90
2015,12,04,17,38,8.10
2015,12,04,17,39,8.10
2015,12,04,17,40,4.80
2015,12,04,17,41,11.30
2015,12,04,17,42,11.30
2015,12,04,17,43,9.60
2015,12,04,17,44,6.40
2015,12,04,17,45,11.30
2015,12,04,17,46,6.40
2015,12,04,17,47,11.30
2015,12,04,17,48,4.80
2015,12,04,17,49,4.80
2015,12,04,17,50,6.40
2015,12,04,17,51,6.40
2015,12,04,17,52,8.10
2015,12,04,17,53,11.30
2015,12,04,17,54,12.90
2015,12,04,17,55,12.90
2015,12,04,17,56,12.90
2015,12,04,17,57,17.70
2015,12,04,17,58,17.70
2015,12,04,17,59,12.90
2015,12,04,18,00,14.50
2015,12,04,18,01,12.90
2015,12,04,18,02,11.30
2015,12,04,18,03,14.50
2015,12,04,18,04,11.30
2015,12,04,18,05,14.50
2015,12,04,18,06,14.50
2015,12,04,18,07,14.50
2015,12,04,18,08,12.90
2015,12,04,18,09,12.90
2015,12,04,18,10,12.90
2015,12,04,18,11,16.10
2015,12,04,18,12,14.50
2015,12,04,18,13,11.30
2015,12,04,18,14,16.10
2015,12,04,18,15,12.90
2015,12,04,18,16,11.30
2015,12,04,18,17,9.60
2015,12,04,18,18,12.90
2015,12,04,18,19,12.90
2015,12,04,18,20,8.10
2015,12,04,18,21,11.30
2015,12,04,18,22,11.30
2015,12,04,18,23,14.50
2015,12,04,18,24,19.30
2015,12,04,18,25,16.10
2015,12,04,18,26,12.90
2015,12,04,18,27,11.30
2015,12,04,18,28,17.70
2015,12,04,18,29,14.50
2015,12,04,18,30,16.10
2015,12,04,18,31,16.10
2015,12,04,18,32,17.70
2015,12,04,18,33,16.10
2015,12,04,18,34,14.50
2015,12,04,18,35,16.10
2015,12,04,18,36,17.70
2015,12,04,18,37,16.10
2015,12,04,18,38,16.10
2015,12,04,18,39,14.50
2015,12,04,18,40,14.50
2015,12,04,18,41,14.50
2015,12,04,18,42,17.70
2015,12,04,18,43,14.50
2015,12,04,18,44,17.70
2015,12,04,18,45,17.70
2015,12,04,18,46,16.10
2015,12,04,18,47,19.30
2015,12,04,18,48,20.90
2015,12,04,18,49,14.50
2015,12,04,18,50,16.10
2015,12,04,18,51,14.50
2015,12,04,18,52,16.10
2015,12,04,18,53,16.10
2015,12,04,18,54,14.50
2015,12,04,18,55,17.70
2015,12,04,18,56,19.30
2015,12,04,18,57,17.70
2015,12,04,18,58,17.70
2015,12,04,18,59,14.50
2015,12,04,19,00,14.50
2015,12,04,19,01,16.10
2015,12,04,19,02,16.10
2015,12,04,19,03,17.70
2015,12,04,19,04,14.50
2015,12,04,19,05,11.30
2015,12,04,19,06,17.70
2015,12,04,19,07,11.30
2015,12,04,19,08,14.50
2015,12,04,19,09,12.90
2015,12,04,19,10,14.50
2015,12,04,19,11,16.10
2015,12,04,19,12,14.50
2015,12,04,19,13,12.90
2015,12,04,19,14,11.30
2015,12,04,19,15,8.10
2015,12,04,19,16,8.10
2015,12,04,19,17,14.50
2015,12,04,19,18,9.60
2015,12,04,19,19,9.60
2015,12,04,19,20,11.30
2015,12,04,19,21,16.10
2015,12,04,19,22,12.90
2015,12,04,19,23,8.10
2015,12,04,19,24,9.60
2015,12,04,19,25,17.70
2015,12,04,19,26,14.50
2015,12,04,19,27,17.70
2015,12,04,19,28,19.30
2015,12,04,19,29,22.50
2015,12,04,19,30,14.50
2015,12,04,19,31,14.50
2015,12,04,19,32,20.90
2015,12,04,19,33,14.50
2015,12,04,19,34,17.70
2015,12,04,19,35,17.70
2015,12,04,19,36,20.90
2015,12,04,19,37,22.50
2015,12,04,19,38,20.90
2015,12,04,19,39,19.30
2015,12,04,19,40,19.30
2015,12,04,19,41,22.50
2015,12,04,19,42,17.70
2015,12,04,19,43,20.90
2015,12,04,19,44,22.50
2015,12,04,19,45,29.00
2015,12,04,19,46,22.50
2015,12,04,19,47,25.70
2015,12,04,19,48,22.50
2015,12,04,19,49,22.50
2015,12,04,19,50,24.20
2015,12,04,19,51,22.50
2015,12,04,19,52,29.00
2015,12,04,19,53,27.40
2015,12,04,19,54,22.50
2015,12,04,19,55,24.20
2015,12,04,19,56,20.90
2015,12,04,19,57,20.90
2015,12,04,19,58,19.30
2015,12,04,19,59,24.20
2015,12,04,20,00,22.50
2015,12,04,20,01,22.50
2015,12,04,20,02,22.50
2015,12,04,20,03,20.90
2015,12,04,20,04,27.40
2015,12,04,20,05,20.90
2015,12,04,20,06,20.90
2015,12,04,20,07,17.70
2015,12,04,20,08,24.20
2015,12,04,20,09,22.50
2015,12,04,20,10,22.50
2015,12,04,20,11,20.90
2015,12,04,20,12,19.30
2015,12,04,20,13,20.90
2015,12,04,20,14,20.90
2015,12,04,20,15,16.10
2015,12,04,20,16,22.50
2015,12,04,20,17,17.70
2015,12,04,20,18,22.50
2015,12,04,20,19,24.20
2015,12,04,20,20,20.90
2015,12,04,20,21,24.20
2015,12,04,20,22,17.70
2015,12,04,20,23,20.90
2015,12,04,20,24,14.50
2015,12,04,20,25,19.30
2015,12,04,20,26,17.70
2015,12,04,20,27,22.50
2015,12,04,20,28,22.50
2015,12,04,20,29,25.70
2015,12,04,20,30,24.20
2015,12,04,20,31,29.00
2015,12,04,20,32,22.50
2015,12,04,20,33,20.90
2015,12,04,20,34,22.50
2015,12,04,20,35,24.20
2015,12,04,20,36,20.90
2015,12,04,20,37,17.70
2015,12,04,20,38,19.30
2015,12,04,20,39,22.50
2015,12,04,20,40,32.20
2015,12,04,20,41,24.20
2015,12,04,20,42,30.60
2015,12,04,20,43,29.00
2015,12,04,20,44,30.60
2015,12,04,20,45,33.80
2015,12,04,20,46,24.20
2015,12,04,20,47,20.90
2015,12,04,20,48,14.50
2015,12,04,20,49,22.50
2015,12,04,20,50,19.30
2015,12,04,20,51,22.50
2015,12,04,20,52,22.50
2015,12,04,20,53,22.50
2015,12,04,20,54,24.20
2015,12,04,20,55,19.30
2015,12,04,20,56,16.10
2015,12,04,20,57,27.40
2015,12,04,20,58,29.00
2015,12,04,20,59,29.00
2015,12,04,21,00,30.60
2015,12,04,21,01,22.50
2015,12,04,21,02,20.90
2015,12,04,21,03,17.70
2015,12,04,21,04,19.30
2015,12,04,21,05,24.20
2015,12,04,21,06,19.30
2015,12,04,21,07,24.20
2015,12,04,21,08,22.50
2015,12,04,21,09,25.70
2015,12,04,21,10,22.50
2015,12,04,21,11,17.70
2015,12,04,21,12,20.90
2015,12,04,21,13,24.20
2015,12,04,21,14,20.90
2015,12,04,21,15,19.30
2015,12,04,21,16,16.10
2015,12,04,21,17,19.30
2015,12,04,21,18,19.30
2015,12,04,21,19,19.30
2015,12,04,21,20,22.50
2015,12,04,21,21,20.90
2015,12,04,21,22,22.50
2015,12,04,21,23,16.10
2015,12,04,21,24,12.90
2015,12,04,21,25,17.70
2015,12,04,21,26,16.10
2015,12,04,21,27,6.40
2015,12,04,21,28,14.50
2015,12,04,21,29,17.70
2015,12,04,21,30,22.50
2015,12,04,21,31,17.70
2015,12,04,21,32,20.90
2015,12,04,21,33,16.10
2015,12,04,21,34,11.30
2015,12,04,21,35,16.10
2015,12,04,21,36,14.50
2015,12,04,21,37,16.10
2015,12,04,21,38,19.30
2015,12,04,21,39,19.30
2015,12,04,21,40,19.30
2015,12,04,21,41,20.90
2015,12,04,21,42,22.50